Location: Bucquoy
(50.1391°N, 2.7097°E)
Time: 09:21:43
(UTC+00:00)

CZ-2D R/B - Pass Details

Date: 06 May 2021
Orbit: 791 x 846 km, 98.7° (Epoch: 21 June)

Event Time Altitude Azimuth Distance (km) Brightness Sun altitude
Rises 02:28:35 0° 10° (N) 3,413 6.4 -14.3°
Reaches altitude 10° 02:31:06 10° 3° (N) 2,469 5.4 -14.0°
Maximum altitude 02:36:08 39° 296° (WNW) 1,234 2.9 -13.5°
Enters shadow 02:39:42 18° 237° (WSW) 1,948 3.5 -13.1°
